Flag for Cayman Islands Weather past 2 weeks in George Town, Cayman Islands

Now
77 °F

Warm.


Feels Like: 78 °F
Forecast: 79 / 82 °F
Wind: 6 mph from Southeast

Location: Cayo Largo Del Sur

Current Time: Feb 27, 2015 at 3:32:34 AM

Latest Report: Feb 27, 2015 at 2:05 AM


Visibility: N/A

Pressure: 29.98 "Hg

Humidity: 83%

Dew point: 72 °F

Location of George TownLocation

Historic Weather in George Town — Graph

°F

George Town temperature yesterday

Maximum temperature yesterday: 84 °F (at 11:51 AM)
Minimum temperature yesterday: 77 °F (at 4:05 AM)
Average temperature yesterday: 80 °F

Past Weeks' High & Low Weather Summary

 TemperatureHumidityPressure
High84 °F (Feb 26, 11:51 AM)89% (Feb 18, 2:51 PM)30.27 "Hg (Feb 18, 2:51 PM)
Low59 °F (Feb 20, 2:05 AM)43% (Feb 19, 2:52 PM)29.86 "Hg (Feb 26, 1:54 AM)
Average73 °F68%30.07 "Hg
* Reported Feb 12 2:05 AM — Feb 27 2:05 AM, George Town, Weather by CustomWeather, © 2015

Note: Actual official high and low records may vary slightly from our data, if they occured in-between our weather recording intervals... More about our weather records

Advertising

George Town weather history for previous 24 hours

 ConditionsComfort  
Time TempWeatherWind HumidityBarometerVisibility
2:05 AM
Fri, Feb 27
77 °FWarm.6 mph83%29.98 "HgN/A
1:05 AM77 °FWarm.6 mph83%29.98 "HgN/A
12:05 AM77 °FWarm.5 mph83%29.98 "HgN/A
11:05 PM
Thu, Feb 26
77 °FWarm.6 mph83%29.98 "HgN/A
10:05 PM77 °FWarm.7 mph83%29.98 "HgN/A
9:05 PM79 °FWarm.7 mph84%29.98 "HgN/A
8:05 PM79 °FWarm.6 mph84%29.98 "HgN/A
6:51 PM79 °FPassing clouds.6 mph79%29.95 "HgN/A
5:51 PM81 °FPassing clouds.10 mph74%29.95 "HgN/A
4:51 PM82 °FPassing clouds.14 mph70%29.92 "HgN/A
3:53 PM82 °FPassing clouds.14 mph70%29.92 "HgN/A
2:51 PM84 °FPassing clouds.15 mph66%29.92 "HgN/A
1:51 PM84 °FPassing clouds.14 mph70%29.92 "HgN/A
12:50 PM84 °FPassing clouds.15 mph70%29.95 "HgN/A
11:51 AM84 °FPassing clouds.15 mph66%29.95 "HgN/A
10:51 AM82 °FPassing clouds.18 mph70%29.95 "HgN/A
9:53 AM82 °FPassing clouds.16 mph70%29.95 "HgN/A
8:51 AM81 °FPassing clouds.16 mph74%29.95 "HgN/A
7:51 AM79 °FPassing clouds.12 mph79%29.92 "HgN/A
6:51 AM77 °FPassing clouds.14 mph79%29.92 "Hg6 mi
6:05 AM77 °FWarm.12 mph79%29.89 "HgN/A
5:05 AM77 °FWarm.14 mph83%29.86 "HgN/A
4:05 AM77 °FWarm.14 mph83%29.86 "HgN/A
Weather by CustomWeather, © 2015

See weather overviewHow to use our weather pages